Showing default

SYRACUSE 4A, 49333

Orbit data source: Space-Track

SYRACUSE 4A, 49333 is a payload satellite owned by DGA (FR) in GEO that was launched on Sun, 24 Oct 2021 UTC via an ARIANE 5ECA+ launch vehicle from the French Guiana (FRGUI). Payload-class satellites include a variety of spacecraft equipped with specific instruments for various scientific and technological missions. These include communications satellites like Starlink; space stations such as the ISS; scientific satellites like the Hubble; Earth observation satellites from companies like Planet Labs, Umbra, and HawkEye 360; GPS; miniature CubeSats for education and research; and military/defense satellites.

Not visible in the next 10 days
Identifier
49333, 2021-095B
Orbit
GEO
Last TLE update
1 day ago
Origin
Manufacturer
Thales Alenia
Mission
Operational Defense Communications
Bus & Motor
SPACEBUS NEO100, XPS/PPS-5000
Mass
3,852 kg wet, ~3,200 kg dry
Launch date (UTC)
2021-10-24 (4 years ago)
Launch vehicle
ARIANE 5ECA+
Launch site
French Guiana (FRGUI)
Object type
Payload
Rocket body
Debris
Shape & HBR
Box + 2 Pan, 30 m
Radar Cross Section
34.063 m², Medium (>0.1 m² and < 1m²)

Expand to show TLE details & history

TLE from 1 day ago
0 SYRACUSE 4A
1 49333U 21095B   25119.18095984  .00000134  00000-0  00000+0 0  9998
2 49333   0.0196 285.4901 0001471 103.4270 299.1204  1.00270386 13838
Epoch: 2025-04-29T04:20Z
Definitive object data (Epoch: 2025-04-29T04:20:34.93Z)
Latitude
0.03288°
Longitude
45.48864°
Altitude
35,783.452 km
Speed
3.075 km/s
True Right ascension
21h 52m 04s
True Declination
0° 01' 58"
Sunlit
Object was in daylight at TLE epoch
Visualization TLE readout
Latitude
0.02652°
Longitude
131.56583°
Altitude
35,780.673 km
Speed
3.075 km/s
Apparent Right ascension
03h 48m 13s
Apparent Declination
-4° 58' 50"
Sunlit
Object is in daylight
Visualization observer readout
Local Sidereal Time
17:33:52
Azimuth
41.212° NE
Elevation
-47.736°
Doppler factor
1
Orbital elements
Apogee altitude
35,794.26 km
Perigee altitude
35,781.855 km
Semi-major axis
42,166.195 km
Eccentricity
0.0001471
Inclination
0.0196°
RAAN
285.4901°
Arg. of periapsis
103.427°
True anomaly
299.10567°
Mean anomaly
299.1204°
Eccentric anomaly
299.11304°
Mean motion
0.25067 °/min
BSTAR
Unknown
Orbital period
1436.17 mins
Loading historical data...
49333 neighbors
Loading maneuver chart data...
Loading SW <> Apogee altitude chart data...
Loading historical data...
Loading historical data...
Loading historical data...
Loading historical data...
Loading historical data...
Loading historical data...
Loading historical data...
Other satellites on launch #95 in the year 2021 (2021-10-24 UTC)

SYRACUSE 4A Visibility forecast

Observer location: undefined°, undefined°

SYRACUSE 4A is not visible in the next 10 days
Span
Click to sort rows by Start time (UTC) header in descending order
Start Az.
Max El. time (UTC)
Max El. Az.
Max El.
End time (UTC)
End Az.
|